Wind_Speed
1 1 1 2 4 4 1 0 1 2 1 1 1 2 4 3 3 2 5 2 4 6 14 14 13 13 12 12 11 9 6 3 2 1 1 2 2 3 3 4 2 5 8 3 4 5 5 5 5
2 1 2 3 4 3 2 3 2 1 0 1 2 3 3 1 4 4 5 3 5 5 11 13 13 12 12 11 9 9 6 4 2 2 3 3 2 2 2 2 2 3 5 4 4 4 4 3 3
3 3 2 4 3 3 3 3 2 1 2 2 2 3 2 2 6 4 8 8 6 5 7 12 12 12 12 11 10 9 8 6 4 3 3 3 3 2 2 3 2 1 4 8 3 2 3 3 3
2 2 6 4 3 2 1 1 2 1 1 4 3 3 2 4 3 5 8 9 7 5 6 10 14 13 12 12 11 10 9 7 5 5 5 5 4 2 4 4 2 1 4 7 5 3 4 5 5
3 4 4 4 0 1 3 2 2 1 1 2 3 1 3 6 4 5 6 7 7 5 4 6 10 15 14 13 13 12 11 9 8 6 6 6 4 5 5 3 2 2 4 8 7 4 4 5 5
4 3 4 2 2 2 3 1 2 1 1 2 3 2 4 5 5 3 2 3 5 5 3 4 8 11 15 16 15 14 13 12 10 8 7 6 6 6 5 3 3 3 8 10 11 6 4 4 5
6 4 4 4 3 1 2 1 3 2 2 3 1 2 6 6 3 0 1 2 1 2 2 1 4 8 11 15 17 17 15 14 12 10 9 8 8 7 5 4 4 5 7 9 11 9 7 6 5
4 5 4 2 3 3 1 2 2 2 1 3 2 1 2 3 0 2 4 4 5 4 4 5 6 7 9 12 14 16 16 16 15 13 12 11 10 10 9 8 7 6 7 8 8 8 8 7 7
3 4 2 5 5 3 1 1 1 2 1 3 1 1 4 8 6 5 7 7 8 8 8 9 9 9 9 11 13 14 16 17 15 14 13 11 12 13 13 10 9 9 9 9 9 8 7 6 6
4 3 6 5 4 3 1 1 2 1 5 1 2 2 5 6 7 7 7 8 8 10 12 12 12 11 12 11 12 12 13 14 15 14 11 12 14 14 11 10 12 10 10 11 11 9 8 7 6
2 4 4 2 4 3 2 2 2 2 0 2 3 0 2 2 1 1 2 4 4 4 5 9 13 14 14 13 11 11 11 12 12 11 15 17 16 15 13 14 11 13 13 12 13 15 11 9 9
2 1 2 0 3 3 2 1 3 5 3 4 3 1 2 4 4 3 3 5 5 7 8 8 8 11 15 15 14 11 8 9 10 13 15 16 17 15 15 15 12 13 13 13 14 14 15 11 11
2 1 2 4 8 8 6 7 6 5 8 6 6 3 1 3 5 7 8 7 7 7 8 9 10 11 12 15 17 13 8 6 5 6 12 14 14 16 15 13 14 13 14 14 14 14 14 13 14
2 3 8 9 7 7 5 3 5 3 11 9 5 0 2 3 3 5 7 7 7 7 7 8 10 11 10 11 15 15 10 6 4 4 5 8 11 15 15 14 15 14 12 14 14 14 15 15 15
1 3 7 6 2 4 6 2 6 11 13 6 3 3 4 4 4 5 6 6 5 6 8 7 6 6 5 6 12 15 13 11 9 6 4 4 6 8 10 12 13 12 12 13 14 13 14 13 14
2 4 3 2 1 0 4 5 2 16 14 7 6 3 2 2 4 5 5 4 5 6 5 6 6 4 6 10 15 16 13 10 6 5 6 6 6 6 10 13 13 14 15 12 18 13 15 16 18
6 3 4 7 3 1 2 5 4 13 9 6 5 3 2 2 3 4 3 2 2 3 4 5 7 8 9 11 13 14 12 9 6 5 4 4 6 8 8 7 8 10 8 11 10 11 16 17 14
6 4 5 5 1 2 1 9 6 9 9 8 6 6 5 2 1 2 2 2 3 3 5 7 9 11 13 14 16 16 15 11 7 5 3 3 3 3 6 8 9 8 9 8 8 7 8 10 12
5 4 6 2 2 3 6 6 13 10 12 10 11 11 8 6 5 4 5 6 6 6 6 8 11 14 14 16 18 18 17 12 9 6 4 3 2 2 4 6 8 10 12 12 10 10 11 13 16
4 4 6 5 3 3 6 9 12 6 5 10 17 15 12 11 10 9 10 11 12 13 13 12 11 11 11 10 14 14 12 11 9 8 5 4 3 2 1 2 4 6 7 7 8 10 11 14 16
5 7 4 6 3 2 3 7 6 1 2 1 9 10 11 12 11 13 14 16 17 18 19 18 17 17 16 15 14 14 13 14 13 12 12 11 10 9 8 7 8 8 8 8 8 9 10 12 13
5 8 6 4 3 4 1 5 6 0 2 3 10 14 15 15 14 15 15 17 18 20 21 22 22 20 19 18 17 16 16 15 15 13 12 12 11 10 10 9 9 10 10 10 12 13 12 12 13
6 6 7 4 4 2 3 1 7 1 5 4 11 15 17 17 17 17 15 16 17 19 20 21 21 20 19 16 12 9 9 12 12 11 9 10 11 11 11 12 12 12 12 12 12 12 14 15 15
9 6 6 4 3 1 8 7 4 4 5 4 13 20 18 16 14 13 13 13 16 18 18 18 16 15 12 9 8 7 8 10 9 9 7 9 10 9 10 10 11 11 12 13 14 15 14 15 15
1 6 0 1 0 5 1 5 7 6 5 4 15 26 24 21 20 19 18 16 13 14 15 14 11 9 8 6 7 8 8 8 6 6 6 6 6 6 8 9 10 11 12 13 14 15 16 17 18
7 6 5 7 4 3 2 6 6 4 2 4 6 23 25 24 22 20 18 17 17 16 13 10 8 6 6 5 4 4 4 4 3 2 3 4 5 7 9 10 11 13 14 15 16 17 17 18 19
5 5 2 5 3 2 4 4 4 1 1 3 11 23 29 27 25 23 22 20 18 15 13 10 8 6 4 3 3 3 4 2 1 1 2 3 6 7 8 10 12 13 15 17 18 19 20 21 23
4 6 3 2 1 4 4 4 4 6 7 5 9 24 29 27 25 23 22 20 17 17 14 14 11 8 7 7 7 7 6 4 3 3 4 4 5 6 8 11 12 14 15 16 17 18 20 23 25
4 3 3 3 4 5 2 4 5 8 8 12 18 27 31 30 29 27 24 21 19 19 17 16 14 11 10 10 9 9 8 7 6 4 3 5 7 10 12 14 16 17 19 20 21 23 25 28 31
3 8 7 5 6 3 3 5 0 3 8 16 20 26 28 28 27 25 23 24 24 22 20 19 17 15 14 14 13 13 12 9 6 4 5 8 11 14 16 17 19 21 23 25 26 28 30 34 36
Wind_Direction
304 281 339 101 61 65 21 76 274 12 39 345 55 102 131 105 137 130 11 117 45 160 180 176 177 178 176 176 177 181 182 187 159 50 39 41 44 49 57 77 97 355 348 341 64 59 52 45 39
75 59 79 87 82 68 285 267 163 242 231 102 105 76 87 72 61 73 44 67 55 137 184 185 181 184 186 187 188 193 205 204 239 310 325 334 341 9 50 65 13 5 33 27 46 36 43 41 31
78 52 66 85 105 146 177 235 280 352 42 89 109 74 74 46 56 79 58 59 57 112 155 194 195 192 194 197 201 209 209 215 243 278 296 301 306 323 347 345 353 104 310 293 313 330 340 342 340
78 75 65 77 98 198 169 290 224 325 60 58 73 64 59 32 72 89 66 53 50 84 144 175 201 206 207 211 211 213 218 231 253 272 284 289 297 314 337 340 12 254 285 295 346 293 311 318 321
77 72 58 85 145 224 253 248 161 123 138 58 73 9 66 45 80 87 64 51 55 78 139 175 196 209 215 220 223 222 226 237 253 267 282 292 291 312 328 336 318 272 310 349 6 349 313 317 324
79 76 70 155 221 280 273 190 168 138 61 90 71 57 71 78 111 108 78 50 51 59 110 175 197 207 219 226 230 234 236 244 256 264 272 261 275 305 319 318 357 331 316 339 354 353 335 329 330
103 79 155 149 177 255 205 250 172 147 355 90 65 100 138 74 86 157 242 211 119 97 115 159 215 218 220 224 230 236 239 244 254 259 258 253 264 276 290 280 291 315 332 344 354 357 349 341 337
87 91 110 203 173 198 231 149 133 90 259 342 354 87 162 318 344 252 231 231 223 226 219 210 214 228 231 232 232 230 238 245 250 252 253 253 261 268 270 267 275 289 306 324 345 355 351 341 336
88 67 145 196 155 184 104 88 167 311 260 301 348 28 284 301 291 259 238 237 238 242 244 236 231 227 234 238 234 233 230 239 245 247 250 244 251 262 264 268 272 283 299 306 317 337 340 328 324
77 99 204 187 189 147 102 180 299 183 335 144 106 339 295 277 258 249 244 252 255 253 256 248 239 238 235 230 239 237 234 229 235 239 250 250 244 247 264 264 266 274 287 303 310 307 327 322 308
127 161 190 195 193 177 174 270 190 157 240 174 324 18 82 52 49 287 288 299 292 285 278 263 255 250 241 235 228 236 236 234 231 229 243 247 247 250 257 271 270 274 281 296 308 314 304 315 312
96 142 196 304 186 197 193 243 267 236 190 190 268 193 344 348 340 334 310 293 289 289 286 283 274 260 254 243 231 227 236 231 233 232 237 250 257 259 261 264 271 274 279 282 296 309 320 313 306
111 313 249 255 266 264 234 227 240 244 232 234 176 173 243 326 329 330 326 319 307 296 285 276 269 266 253 239 230 219 216 221 230 251 251 248 255 256 263 270 271 280 281 284 284 291 306 313 313
172 277 288 285 251 256 206 200 191 228 167 165 179 225 6 358 339 321 306 305 304 304 300 293 281 269 260 240 220 209 198 198 186 187 207 243 254 254 257 264 272 280 294 286 282 288 294 291 302
141 318 326 272 271 225 177 153 228 167 160 167 205 269 300 335 344 332 332 329 335 335 343 348 333 279 241 212 188 184 183 185 182 179 153 197 226 230 233 250 248 263 275 273 278 283 283 289 291
61 50 358 272 170 300 163 259 191 179 179 180 196 207 266 316 346 355 353 352 352 352 348 10 28 63 148 163 171 175 174 176 174 225 245 242 261 263 249 238 246 251 245 262 259 272 282 290 280
6 240 220 316 233 110 173 261 206 188 198 184 188 201 230 311 340 348 348 359 28 44 54 63 79 101 116 138 150 154 150 148 187 217 234 234 248 270 293 301 313 305 306 283 293 281 278 274 277
201 216 245 227 209 169 195 268 214 215 198 201 208 196 185 167 7 33 37 52 74 105 121 112 108 113 125 131 135 139 136 146 169 199 218 252 278 288 289 296 308 310 301 299 301 307 310 301 293
139 176 231 219 258 179 236 254 274 199 192 188 191 185 177 155 116 99 92 80 79 87 103 121 115 112 123 132 136 139 148 152 154 158 150 174 227 261 266 268 280 291 300 301 302 306 313 310 309
135 180 248 294 226 167 268 254 259 246 213 215 195 187 177 159 137 116 106 108 108 108 107 109 118 113 117 120 127 136 132 123 118 103 101 89 61 51 15 303 288 296 307 316 311 310 315 318 323
201 200 197 222 355 250 327 282 252 244 168 202 200 188 164 148 135 121 118 115 109 109 109 108 105 109 109 104 104 109 112 105 98 90 83 72 59 47 33 25 14 4 354 341 338 334 323 316 326
208 195 181 176 102 239 34 283 306 156 179 119 157 172 167 160 149 134 128 122 120 115 114 113 113 103 97 97 98 99 99 101 94 86 79 77 69 58 52 45 39 31 26 15 12 5 357 345 345
223 136 162 134 154 82 258 295 266 339 262 191 189 182 178 171 165 157 148 140 131 120 119 116 110 105 100 99 95 79 73 82 83 77 71 59 49 40 34 27 25 23 24 23 21 17 14 12 8
149 84 61 61 112 224 224 182 261 215 208 154 187 194 187 175 165 159 153 146 139 135 126 118 113 107 103 96 88 79 77 87 92 84 67 53 39 27 18 15 11 12 11 11 13 15 10 11 9
153 111 112 335 282 226 176 146 238 206 189 194 194 190 186 182 175 171 167 161 155 147 140 135 128 116 107 110 101 95 91 96 86 69 42 25 10 2 359 360 357 358 2 359 356 355 354 352 351
187 179 169 205 198 222 41 220 254 173 192 256 219 195 186 185 182 180 176 173 171 171 167 165 157 150 139 133 117 116 122 125 105 45 3 348 351 354 351 347 345 344 346 347 347 346 345 343 341
196 215 172 98 57 64 225 285 275 177 197 104 172 187 190 189 188 185 184 183 184 189 189 192 196 189 174 173 190 190 186 182 205 257 307 332 340 333 330 331 332 331 328 327 327 328 329 331 330
165 165 93 7 219 267 271 261 228 210 209 173 186 193 194 192 193 192 194 195 193 201 207 215 213 214 212 210 209 210 212 218 243 274 279 289 301 312 315 317 319 320 321 322 321 321 322 322 322
150 198 70 128 152 194 259 246 217 189 187 195 203 199 195 196 197 195 198 202 207 213 218 225 227 230 228 225 223 224 228 233 233 243 281 316 327 330 330 329 327 324 321 321 321 321 322 322 320
196 181 162 168 216 222 173 237 282 235 220 200 204 200 197 201 199 199 201 207 214 219 227 233 234 236 232 229 229 231 231 230 236 267 318 333 335 333 333 330 327 326 324 324 323 323 323 322 322
Height
1548 1548 1548 1548 1558 1565 1577 1571 1567 1564 1564 1562 1561 1561 1563 1563 1565 1574 1566 1566 1565 1566 1568 1570 1572 1574 1576 1578 1580 1581 1582 1583 1585 1585 1585 1586 1586 1587 1587 1588 1588 1588 1588 1587 1587 1587 1586 1586 1586
1548 1548 1549 1548 1567 1579 1576 1569 1566 1564 1562 1562 1562 1562 1563 1565 1564 1566 1566 1566 1566 1567 1568 1571 1573 1575 1577 1579 1580 1582 1583 1584 1585 1585 1586 1586 1587 1587 1587 1588 1588 1588 1588 1587 1587 1587 1587 1587 1587
1548 1548 1549 1557 1576 1579 1575 1567 1564 1563 1562 1562 1562 1563 1563 1565 1565 1566 1566 1565 1566 1566 1568 1571 1573 1575 1577 1579 1580 1582 1583 1584 1585 1586 1586 1587 1587 1588 1588 1588 1588 1589 1588 1587 1587 1587 1587 1587 1587
1547 1549 1553 1565 1569 1569 1567 1564 1563 1562 1562 1561 1561 1563 1565 1565 1565 1566 1566 1566 1566 1566 1567 1569 1572 1574 1576 1578 1580 1581 1583 1584 1585 1586 1587 1587 1588 1588 1588 1588 1588 1589 1588 1586 1586 1586 1586 1586 1586
1547 1548 1563 1571 1569 1566 1564 1562 1562 1562 1562 1562 1562 1563 1564 1566 1566 1567 1567 1566 1566 1566 1567 1569 1571 1573 1574 1576 1578 1580 1582 1583 1584 1585 1586 1587 1587 1587 1588 1588 1588 1588 1587 1586 1585 1585 1585 1585 1585
1548 1551 1569 1574 1570 1565 1563 1562 1561 1561 1561 1562 1562 1563 1566 1565 1565 1566 1566 1566 1566 1566 1567 1567 1569 1571 1573 1575 1577 1578 1580 1581 1582 1584 1585 1585 1586 1586 1587 1587 1588 1588 1588 1586 1585 1585 1585 1585 1585
1548 1558 1571 1571 1570 1565 1562 1562 1562 1561 1561 1562 1562 1563 1565 1564 1564 1565 1565 1565 1565 1565 1566 1567 1567 1569 1570 1572 1574 1576 1578 1579 1581 1582 1583 1584 1585 1585 1586 1587 1587 1588 1587 1586 1586 1585 1585 1584 1584
1549 1555 1570 1569 1569 1566 1561 1561 1561 1562 1562 1562 1562 1562 1564 1563 1564 1564 1564 1564 1564 1564 1564 1564 1564 1566 1567 1568 1570 1572 1574 1576 1578 1579 1581 1582 1583 1584 1585 1586 1586 1586 1586 1586 1585 1585 1584 1584 1584
1550 1562 1572 1567 1569 1562 1561 1561 1561 1561 1561 1562 1562 1562 1563 1562 1563 1563 1563 1563 1562 1562 1562 1562 1562 1562 1564 1565 1566 1568 1571 1573 1575 1577 1579 1580 1581 1582 1582 1584 1585 1585 1585 1585 1585 1585 1583 1583 1583
1551 1564 1562 1559 1560 1561 1561 1560 1560 1561 1560 1560 1561 1561 1561 1560 1559 1559 1559 1560 1560 1560 1560 1559 1560 1560 1560 1562 1564 1566 1567 1570 1573 1575 1578 1578 1579 1580 1581 1581 1582 1583 1583 1583 1583 1583 1582 1582 1582
1553 1559 1556 1556 1557 1559 1559 1559 1559 1559 1561 1559 1560 1559 1559 1558 1558 1557 1557 1556 1556 1557 1557 1558 1558 1558 1558 1559 1561 1563 1565 1567 1570 1573 1575 1575 1576 1577 1578 1579 1580 1580 1581 1581 1581 1581 1580 1580 1580
1555 1554 1556 1556 1556 1557 1558 1558 1558 1557 1558 1558 1558 1558 1557 1557 1556 1556 1555 1555 1555 1554 1554 1554 1554 1555 1556 1557 1559 1561 1563 1565 1567 1569 1571 1572 1574 1575 1576 1577 1577 1578 1579 1579 1579 1579 1579 1578 1578
1554 1554 1554 1554 1554 1554 1555 1555 1556 1555 1555 1556 1557 1557 1556 1556 1554 1554 1553 1553 1552 1552 1551 1550 1550 1550 1550 1552 1554 1557 1560 1563 1565 1567 1568 1570 1571 1573 1574 1576 1577 1577 1576 1576 1577 1577 1577 1576 1576
1553 1553 1553 1551 1550 1551 1552 1553 1553 1551 1552 1553 1554 1554 1554 1554 1554 1553 1552 1551 1550 1549 1548 1547 1547 1547 1547 1548 1550 1553 1556 1559 1561 1562 1564 1566 1568 1570 1572 1572 1574 1575 1575 1575 1574 1574 1575 1575 1574
1553 1554 1552 1547 1548 1548 1549 1554 1550 1548 1550 1551 1551 1551 1551 1551 1551 1550 1549 1548 1547 1546 1545 1545 1544 1543 1544 1546 1548 1552 1553 1556 1558 1560 1562 1563 1564 1565 1568 1570 1570 1570 1572 1572 1573 1572 1571 1571 1571
1555 1558 1559 1547 1547 1547 1548 1551 1545 1545 1546 1547 1549 1550 1550 1550 1549 1549 1549 1548 1547 1546 1544 1543 1543 1543 1543 1544 1546 1550 1553 1555 1557 1559 1561 1562 1564 1565 1565 1564 1566 1568 1567 1567 1568 1569 1569 1569 1568
1562 1562 1562 1554 1547 1547 1548 1547 1543 1545 1546 1547 1548 1549 1549 1549 1549 1548 1548 1547 1546 1546 1545 1543 1542 1542 1545 1545 1547 1551 1554 1557 1560 1560 1561 1561 1561 1563 1564 1565 1564 1563 1563 1565 1565 1565 1566 1565 1565
1561 1563 1561 1556 1548 1547 1549 1546 1544 1543 1545 1546 1546 1547 1547 1548 1549 1548 1548 1547 1547 1546 1545 1544 1543 1541 1541 1545 1547 1549 1552 1555 1558 1559 1560 1561 1561 1561 1562 1563 1565 1564 1563 1563 1563 1564 1564 1563 1561
1551 1555 1553 1549 1547 1547 1548 1548 1537 1540 1541 1541 1542 1543 1545 1546 1547 1547 1547 1548 1548 1549 1551 1550 1548 1546 1546 1545 1547 1549 1550 1554 1556 1558 1559 1560 1562 1562 1562 1562 1562 1563 1563 1561 1562 1561 1562 1562 1560
1551 1554 1554 1550 1548 1549 1548 1547 1538 1536 1537 1538 1538 1539 1542 1543 1544 1547 1547 1547 1548 1547 1549 1552 1554 1554 1554 1553 1552 1553 1555 1556 1559 1559 1559 1560 1562 1561 1561 1561 1562 1562 1561 1561 1559 1559 1558 1558 1557
1551 1552 1553 1550 1549 1549 1550 1547 1536 1534 1535 1536 1541 1545 1547 1547 1548 1548 1550 1548 1549 1549 1548 1551 1556 1557 1556 1556 1556 1555 1556 1558 1560 1561 1560 1560 1561 1562 1562 1561 1561 1560 1560 1559 1558 1557 1557 1557 1557
1549 1543 1546 1548 1553 1558 1550 1554 1536 1533 1536 1539 1540 1543 1545 1546 1549 1550 1552 1552 1552 1550 1547 1548 1550 1558 1560 1559 1559 1559 1559 1560 1560 1561 1562 1561 1561 1562 1561 1560 1560 1560 1559 1559 1558 1557 1556 1555 1555
1538 1539 1544 1547 1553 1555 1553 1559 1539 1535 1531 1539 1541 1543 1544 1544 1546 1547 1551 1551 1552 1553 1551 1550 1552 1554 1556 1561 1563 1562 1560 1561 1563 1562 1563 1562 1562 1562 1562 1562 1561 1560 1559 1559 1558 1556 1556 1556 1555
1535 1540 1547 1555 1557 1564 1544 1545 1539 1530 1525 1532 1535 1540 1546 1549 1550 1553 1555 1556 1555 1555 1556 1554 1555 1555 1558 1559 1559 1560 1560 1561 1562 1563 1564 1563 1562 1561 1561 1562 1561 1559 1559 1559 1557 1556 1556 1556 1556
1533 1539 1553 1558 1564 1548 1546 1548 1524 1519 1522 1523 1525 1530 1536 1540 1543 1545 1548 1554 1561 1560 1557 1555 1553 1554 1557 1558 1557 1558 1559 1560 1561 1562 1562 1563 1563 1562 1561 1561 1562 1561 1559 1559 1558 1556 1556 1556 1554
1532 1531 1539 1545 1552 1541 1549 1537 1516 1514 1517 1520 1525 1528 1533 1536 1540 1543 1548 1552 1553 1556 1557 1557 1555 1554 1556 1557 1557 1558 1559 1558 1559 1561 1561 1561 1561 1560 1560 1560 1560 1559 1558 1557 1556 1555 1555 1555 1553
1528 1531 1526 1542 1581 1557 1528 1520 1511 1518 1518 1518 1521 1526 1529 1532 1535 1538 1541 1544 1550 1556 1555 1556 1556 1554 1555 1555 1557 1557 1557 1558 1558 1558 1560 1560 1560 1560 1559 1559 1558 1557 1556 1555 1554 1553 1552 1551 1550
1515 1517 1530 1541 1544 1557 1527 1520 1507 1515 1514 1518 1521 1522 1524 1527 1532 1537 1540 1544 1545 1550 1551 1554 1552 1553 1553 1553 1554 1556 1557 1557 1557 1558 1558 1559 1558 1559 1558 1557 1556 1555 1553 1552 1552 1550 1549 1548 1546
1516 1519 1521 1520 1528 1532 1541 1514 1505 1504 1506 1510 1512 1515 1518 1522 1526 1528 1533 1540 1544 1546 1546 1550 1550 1550 1550 1551 1552 1553 1555 1556 1556 1557 1557 1557 1556 1555 1555 1553 1552 1550 1549 1547 1546 1545 1543 1541 1539
1499 1502 1504 1514 1522 1533 1526 1501 1503 1502 1502 1502 1506 1510 1513 1519 1522 1524 1528 1535 1539 1541 1543 1545 1545 1546 1547 1548 1549 1551 1552 1553 1553 1553 1552 1552 1551 1551 1550 1549 1547 1545 1544 1541 1539 1537 1534 1532 1529